Weather Roundup
Issued by NWS

Home | Current Version | Previous Version | Graphics & Text | Print | Product List | Glossary Off
Versions: 1 2 3 4 5 6 7 8 9 10 11 12 13 14 15 16 17 18 19 20 21 22 23 24 25 26 27 28 29 30 31 32 33 34 35 36 37 38 39 40 41 42 43 44 45 46 47 48 49 50

229
NZUS93 KARX 070959
HRRWXR

CURRENT HOURLY OBSERVATIONS ACROSS
MUCH OF THE UPPER MISSISSIPPI VALLEY
NATIONAL WEATHER SERVICE LA CROSSE WI
400 AM CST WED DEC 07 2016


...SOUTHEAST MINNESOTA...


CITY           SKY/WX    TMP DP  RH WIND       PRES   REMARKS
ROCHESTER      FLURRIES  14   9  80 W21G26    29.94R WCI  -4
ROCHESTER/MAYO CLOUDY    16  11  80 W22G31    29.95S WCI  -2
WINONA         PTCLDY    19  12  73 W10G17    29.97S WCI   8
AUSTIN         FLURRIES  14   9  79 W16G24    29.99R WCI  -2
ALBERT LEA     CLEAR     18  12  79 W13G23    29.99S WCI   4
DODGE CENTER   FLURRIES  14   9  79 W21G26    29.94S WCI  -4
PRESTON        LGT SNOW  13   8  80 W17       29.97S WCI  -4
OWATONNA       FLURRIES  16   9  73 W23G30    29.98R WCI  -2
FARIBAULT      CLOUDY    16   9  73 SW22G28   29.98R WCI  -2
$$

...ELSEWHERE IN MINNESOTA...


CITY           SKY/WX    TMP DP  RH WIND       PRES   REMARKS
MINNEAPOLIS    LGT SNOW  17  10  74 W14G24    29.92R WCI   3
INTNL FALLS    LGT SNOW  23  20  88 W7        29.52R FOG     WCI  15
DULUTH         FLURRIES  17  12  80 W22G31    29.62R WCI   0
RED WING       FLURRIES  18   9  68 W16G25    29.93R WCI   3
REDWOOD FALLS  CLEAR     13   4  67 W21G30    30.01R WCI  -5
MANKATO        FLURRIES  14   7  73 W26G33    29.99R WCI  -6
WORTHINGTON    CLEAR      9   4  80 W23       30.05R WCI -11
FAIRMONT       CLEAR     13   7  77 W20       30.04R WCI  -5
$$

...SOUTHWEST WISCONSIN...


CITY           SKY/WX    TMP DP  RH WIND       PRES   REMARKS
LA CROSSE      CLOUDY    20  11  68 W12       29.98S WCI   8
PRAIRIE DU CHI CLOUDY    20  11  67 W9        30.05R WCI  10
BOSCOBEL       CLOUDY    21  12  68 W10       30.03R WCI  10
LONE ROCK      NOT AVBL
PLATTEVILLE    CLOUDY    21  16  82 W23       30.01S WCI   4
FORT MC COY    CLOUDY    19  13  76 W9G18     29.95R WCI   9
MAUSTON-NEW LI PTSUNNY   20  13  73 W14G22    29.91S WCI   7
VIROQUA        CLOUDY    15  10  81 W18G26    29.95R WCI  -1
WIS DELLS      PTCLDY    20  15  79 W14       29.92S WCI   7
$$

...ELSEWHERE IN WISCONSIN...


CITY           SKY/WX    TMP DP  RH WIND       PRES   REMARKS
MILWAUKEE      CLEAR     25  15  66 W17G26    29.94S WCI  12
MADISON        CLOUDY    21  14  74 W8G20     29.96R WCI  11
GREEN BAY      FLURRIES  26  16  65 W23G31    29.84R WCI  11
EAU CLAIRE     NOT AVBL
BLACK RVR FLS  CLOUDY    19  11  69 SW14G22   29.91S WCI   6
MEDFORD        FLURRIES  15  10  80 SW14G23   29.76S WCI   1
WAUSAU         FLURRIES  18  12  77 W16G29    29.80R WCI   3
WIS RAPIDS     CLOUDY    19  12  74 W18G28    29.88R WCI   4
MARSHFIELD     CLOUDY    17  10  74 W20G28    29.82R WCI   1
RICE LAKE      FLURRIES  19  12  74 SW20      29.81R WCI   3
$$

...NORTHEAST IOWA...


CITY           SKY/WX    TMP DP  RH WIND       PRES   REMARKS
WATERLOO       MOCLDY    18  11  74 W15       30.08S WCI   4
DUBUQUE        FLURRIES  19  13  77 W23G30    30.04R WCI   2
DECORAH        FLURRIES  16  10  79 W10G18    29.99S WCI   3
MASON CITY     CLOUDY    13   7  77 W23       30.05R WCI  -6
CHARLES CITY   FLURRIES  16  10  79 W17       30.04S WCI   0
OELWEIN        MOCLDY    18  12  79 W18G24    30.05S WCI   2
$$

...ELSEWHERE IN IOWA...


CITY           SKY/WX    TMP DP  RH WIND       PRES   REMARKS
DES MOINES     CLOUDY    21  11  65 NW9       30.14F WCI  11
IOWA CITY      CLOUDY    24  15  68 W15       30.13S WCI  11
FORT DODGE     CLOUDY    16   7  67 W13       30.11S WCI   2
MARSHALLTOWN   CLOUDY    18  12  77 W17       30.10S WCI   3
CEDAR RAPIDS   CLOUDY    20  16  84 W13       30.09S WCI   7
$$

...NORTHERN ILLINOIS...


CITY           SKY/WX    TMP DP  RH WIND       PRES   REMARKS
CHICAGO-OHARE  MOCLDY    25  17  72 W14       30.01R WCI  13
CHICAGO-MIDWAY PTCLDY    27  16  63 W14       30.03R WCI  16
MOLINE         PTCLDY    26  15  63 W16       30.10R WCI  14
ROCKFORD       PTCLDY    24  16  71 W14       30.04R WCI  12
PEORIA         PTCLDY    28  17  63 NW12      30.11R WCI  18
$$

NOTE: "FAIR" INDICATES FEW OR NO CLOUDS BELOW 12,000 FEET WITH NO
SIGNIFICANT WEATHER AND/OR OBSTRUCTIONS TO VISIBILITY. WIND
SPEEDS ARE IN MILES-PER-HOUR.




USA.gov is the U.S. government's official web portal to all federal, state and local government web resources and services.